Regional Weather Roundup
Issued by NWS

Home | Current Version | Previous Version | Text Only | Print | Product List | Glossary On
Versions: 1 2 3 4 5 6 7 8 9 10 11 12 13 14 15 16 17 18 19 20 21 22 23 24 25 26 27 28 29 30 31 32 33 34 35 36 37 38 39 40 41 42 43 44 45 46 47 48 49 50
000
ASUS45 KBOI 300910
RWRID

IDAHO REGIONAL WEATHER ROUNDUP
NATIONAL WEATHER SERVICE BOISE ID
300 AM MDT THU JUL 30 2015

NOTE: "FAIR" INDICATES FEW OR NO CLOUDS BELOW 12000 FEET
WITH NO SIGNIFICANT WEATHER AND/OR OBSTRUCTIONS TO VISIBILITY

IDZ012-014-301000-
SOUTHWEST IDAHO


CITY           SKY/WX    TMP DP  RH WIND       PRES   REMARKS
BOISE          CLEAR     66  38  35 SE8       30.17R
CALDWELL       CLEAR     55  39  54 SE3       30.17S
MOUNTAIN HOME  CLEAR     61  33  35 E3        30.18R
$$

IDZ016-017-301000-
SOUTHCENTRAL IDAHO


CITY           SKY/WX    TMP DP  RH WIND       PRES   REMARKS
BURLEY         CLEAR     53  41  63 CALM      30.25R
JEROME         CLEAR     55  34  45 E6        30.25S
TWIN FALLS     CLEAR     66  33  29 S12       30.22S
$$

IDZ019>023-301000-
SOUTHEAST IDAHO


CITY           SKY/WX    TMP DP  RH WIND       PRES   REMARKS
IDAHO FALLS    CLEAR     46  41  82 N7        30.32R
POCATELLO      CLEAR     47  41  80 CALM      30.29S
REXBURG        CLEAR     48  41  76 NE5       30.33S
$$

IDZ006-010-011-018-031-032-301000-
CENTRAL IDAHO MOUNTAINS


CITY           SKY/WX    TMP DP  RH WIND       PRES   REMARKS
MCCALL         CLEAR     50  38  63 CALM      30.31S
HAILEY         CLEAR     54  36  50 NW12      30.36S
STANLEY          N/A     43  33  68 S6        30.43S
SALMON         CLEAR     52  45  76 CALM      30.29R
CHALLIS        CLEAR     57  40  52 CALM      30.34R
$$

IDZ002-004-006-007-026-301000-
NORTHERN IDAHO


CITY           SKY/WX    TMP DP  RH WIND       PRES   REMARKS
LEWISTON       CLEAR     69  32  25 SE3       30.11S
LOWELL           N/A     57  49  74 NW5       30.22R
COEUR D`ALENE  CLEAR     61  43  51 E3        30.16R
MULLAN PASS    CLEAR     61  27  27 S3        30.37R
$$



USA.gov is the U.S. government's official web portal to all federal, state and local government web resources and services.